Flag for Germany Weather past 2 weeks in Schwäbisch Hall, Baden-Württemberg, Germany

Now
44 °F

Overcast.


Feels Like: 39 °F
Forecast: 36 / 47 °F
Wind: 9 mph from West

Location: Oehringen

Current Time: Dec 22, 2014 at 11:54:33 AM

Latest Report: Dec 22, 2014 at 11:00 AM


Visibility: 41 mi

Pressure: 30.36 "Hg

Humidity: 75%

Dew point: 36 °F

Location of Schwäbisch HallLocation

Historic Weather in Schwäbisch Hall — Graph

°F

Schwäbisch Hall temperature yesterday

Maximum temperature yesterday: 43 °F (at 2:00 PM)
Minimum temperature yesterday: 37 °F (at 1:00 AM)
Average temperature yesterday: 41 °F

Past Weeks' High & Low Weather Summary

 TemperatureHumidityPressure
High53 °F (Dec 18, 8:00 PM)100% (Dec 15, 4:00 AM)30.54 "Hg (Dec 15, 4:00 AM)
Low27 °F (Dec 9, 6:00 AM)57% (Dec 13, 10:00 AM)29.72 "Hg (Dec 12, 6:00 PM)
Average42 °F86%30.10 "Hg
* Reported Dec 7 11:00 AM — Dec 22 11:00 AM, Schwäbisch Hall, Weather by CustomWeather, © 2014

Note: Actual official high and low records may vary slightly from our data, if they occured in-between our weather recording intervals... More about our weather records

Advertising

Schwäbisch Hall weather history for previous 24 hours

 ConditionsComfort  
Time TempWeatherWind HumidityBarometerVisibility
11:00 AM
Dec 22
44 °FOvercast.9 mph75%30.36 "Hg40 mi
10:00 AM44 °FOvercast.9 mph75%30.35 "Hg43 mi
9:00 AM43 °FOvercast.9 mph74%30.35 "Hg34 mi
8:00 AM43 °FOvercast.8 mph74%30.34 "Hg31 mi
7:00 AM43 °FOvercast.10 mph74%30.33 "Hg34 mi
6:00 AM43 °FOvercast.8 mph72%30.33 "Hg31 mi
5:00 AM43 °FOvercast.9 mph72%30.34 "Hg37 mi
4:00 AM43 °FOvercast.12 mph73%30.36 "Hg37 mi
3:00 AM43 °FOvercast.10 mph74%30.38 "Hg34 mi
2:00 AM43 °FOvercast.10 mph75%30.40 "Hg28 mi
1:00 AM43 °FOvercast.8 mph73%30.40 "Hg34 mi
12:00 AM43 °FOvercast.8 mph73%30.40 "Hg31 mi
11:00 PM
Dec 21
43 °FOvercast.8 mph75%30.42 "Hg28 mi
10:00 PM42 °FDrizzle. Overcast.9 mph78%30.44 "Hg18 mi
9:00 PM43 °FLight rain. Overcast.8 mph76%30.45 "Hg13 mi
8:00 PM41 °FLight freezing rain. Overcast.7 mph87%30.45 "Hg4 mi
7:00 PM42 °FLight freezing rain. Overcast.7 mph76%30.46 "Hg19 mi
6:00 PM43 °FDrizzle. Overcast.6 mph73%30.46 "Hg22 mi
5:00 PM43 °FOvercast.6 mph71%30.47 "Hg34 mi
4:00 PM43 °FOvercast.6 mph73%30.47 "Hg34 mi
3:00 PM43 °FOvercast.7 mph73%30.47 "Hg34 mi
2:00 PM43 °FOvercast.6 mph77%30.50 "Hg28 mi
1:00 PM43 °FOvercast.6 mph80%30.51 "Hg25 mi
12:00 PM42 °FOvercast.5 mph85%30.53 "HgN/A
11:00 AM40 °FOvercast.5 mph88%30.54 "Hg15 mi
Weather by CustomWeather, © 2014

See weather overviewHow to use our weather pages